Weather History for Auburn, IN

Change the Weather History Date:

Friday, October 21, 2011

  Actual Average (KFWA) Record (KFWA)
Temperature  
Mean Temperature 44 °F 51 °F  
Max Temperature 50 °F 61 °F 84 °F (1953)
Min Temperature 37 °F 40 °F 20 °F (1952)
Degree Days  
Heating Degree Days 22 14  
Month to date heating degree days 235  
Since 1 July heating degree days 351  
Cooling Degree Days 0 0  
Month to date cooling degree days 8  
Year to date cooling degree days 808  
Moisture  
Dew Point 41 °F    
Average Humidity 86    
Maximum Humidity 100    
Minimum Humidity 71    
Precipitation  
Precipitation 0.02 in 0.09 in 2.54 in (1965)
Month to date precipitation 1.97  
Year to date precipitation 31.61  
Snow  
Snow 0.00 in 0.00 in T in (1995)
Month to date snowfall 0.1  
Since 1 July snowfall 0.1  
Since 1 September snowfall 0.1  
Snow Depth -    
Sea Level Pressure  
Sea Level Pressure 30.00 in    
Wind  
Wind Speed 7 mph (West)    
Max Wind Speed 12 mph    
Max Gust Speed 17 mph    
Visibility 9 miles    
Events Rain    
T = Trace of Precipitation, MM = Missing Value Source: NWS Daily Summary

Daily Weather History Graph

Daily Weather History Graph

Search for Another Location

Airport:

Trip Planner

Search our weather history database for the weather conditions in past years. The results will help you decide how hot, cold, wet, or windy it might be!

Date:

Astronomy

Oct. 21, 2011 Rise Set
Actual Time 7:58 AM EDT 6:50 PM EDT
Civil Twilight 7:30 AM EDT 7:18 PM EDT
Nautical Twilight 6:58 AM EDT 7:50 PM EDT
Astronomical Twilight 6:26 AM EDT 8:22 PM EDT
Moon 1:43 AM EDT (10/21) 3:38 PM EDT (10/21)
Length of Visible Light 11h 48m
Length of Day
10h 52m
Waning Crescent, 34% of the Moon is Illuminated
Oct 21
Waning Crescent
Oct 26
New
Nov 2
First Quarter
Nov 10
Full
Nov 18
Last Quarter

Hourly Weather History & Observations

Time (EDT) Temp. Windchill Dew Point Humidity Pressure Visibility Wind Dir Wind Speed Gust Speed Precip Events Conditions
12:15 AM 42.8 °F 36.6 °F 41.0 °F 93% 29.81 in 4.0 mi West 11.5 mph - N/A   Overcast
12:35 AM 42.8 °F 37.0 °F 41.0 °F 93% 29.82 in 10.0 mi West 10.4 mph - N/A   Overcast
12:55 AM 42.8 °F 38.0 °F 41.0 °F 93% 29.82 in 10.0 mi West 8.1 mph - N/A   Overcast
1:15 AM 42.8 °F 38.0 °F 41.0 °F 93% 29.83 in 2.5 mi NW 8.1 mph - N/A   Drizzle
1:35 AM 42.8 °F 38.0 °F 41.0 °F 93% 29.84 in 2.5 mi WNW 8.1 mph 17.3 mph 0.02 in   Heavy Drizzle
2:15 AM 42.8 °F 38.0 °F 41.0 °F 93% 29.85 in 10.0 mi WNW 8.1 mph - N/A   Overcast
2:35 AM 42.8 °F 38.6 °F 41.0 °F 93% 29.86 in 7.0 mi WNW 6.9 mph - N/A   Overcast
2:55 AM 42.8 °F 39.3 °F 41.0 °F 93% 29.86 in 10.0 mi WNW 5.8 mph - N/A   Overcast
3:15 AM 42.8 °F 41.1 °F 41.0 °F 93% 29.86 in 10.0 mi NW 3.5 mph - N/A   Overcast
3:35 AM 42.8 °F 39.3 °F 41.0 °F 93% 29.87 in 5.0 mi WNW 5.8 mph - N/A Rain Rain
3:55 AM 42.8 °F 39.3 °F 41.0 °F 93% 29.87 in 7.0 mi West 5.8 mph - N/A Rain Light Rain
4:15 AM 44.6 °F 41.4 °F 42.8 °F 93% 29.88 in 10.0 mi West 5.8 mph - N/A   Overcast
4:35 AM 42.8 °F 38.6 °F 42.8 °F 100% 29.89 in 3.0 mi West 6.9 mph - N/A Rain Rain
5:15 AM 42.8 °F 40.1 °F 42.8 °F 100% 29.90 in 10.0 mi West 4.6 mph - N/A   Overcast
5:35 AM 44.6 °F 40.7 °F 41.0 °F 87% 29.91 in 10.0 mi WSW 6.9 mph - N/A   Overcast
5:55 AM 42.8 °F 39.3 °F 41.0 °F 93% 29.92 in 10.0 mi WSW 5.8 mph - N/A   Overcast
6:15 AM 42.8 °F 39.3 °F 41.0 °F 93% 29.93 in 10.0 mi WSW 5.8 mph - N/A   Overcast
6:55 AM 42.8 °F 38.0 °F 41.0 °F 93% 29.95 in 10.0 mi WSW 8.1 mph - N/A   Overcast
7:15 AM 42.8 °F 39.3 °F 41.0 °F 93% 29.95 in 7.0 mi WSW 5.8 mph - N/A   Overcast
7:35 AM 42.8 °F 40.1 °F 41.0 °F 93% 29.95 in 10.0 mi WSW 4.6 mph - N/A   Overcast
7:55 AM 42.8 °F 40.1 °F 41.0 °F 93% 29.96 in 10.0 mi West 4.6 mph - N/A   Overcast
9:35 AM 44.6 °F 42.2 °F 41.0 °F 87% 30.01 in 10.0 mi West 4.6 mph - N/A   Overcast
10:35 AM 44.6 °F 41.4 °F 41.0 °F 87% 30.03 in 10.0 mi West 5.8 mph - N/A   Overcast
11:15 AM 44.6 °F 41.4 °F 42.8 °F 93% 30.03 in 10.0 mi West 5.8 mph - N/A   Overcast
11:35 AM 46.4 °F 45.2 °F 42.8 °F 87% 30.03 in 10.0 mi West 3.5 mph - N/A   Overcast
11:55 AM 46.4 °F 44.3 °F 42.8 °F 87% 30.04 in 10.0 mi West 4.6 mph - N/A   Overcast
12:15 PM 46.4 °F 44.3 °F 42.8 °F 87% 30.04 in 10.0 mi West 4.6 mph - N/A   Overcast
12:35 PM 46.4 °F 43.5 °F 41.0 °F 81% 30.04 in 10.0 mi West 5.8 mph - N/A   Overcast
12:55 PM 46.4 °F 43.5 °F 41.0 °F 81% 30.04 in 10.0 mi West 5.8 mph - N/A   Overcast
1:15 PM 48.2 °F - 41.0 °F 76% 30.04 in 10.0 mi West 6.9 mph - N/A   Overcast
1:35 PM 48.2 °F - 41.0 °F 76% 30.04 in 10.0 mi West 6.9 mph - N/A   Overcast
1:55 PM 48.2 °F - 41.0 °F 76% 30.04 in 10.0 mi West 8.1 mph - N/A   Overcast
2:15 PM 48.2 °F - 41.0 °F 76% 30.04 in 10.0 mi West 8.1 mph - N/A   Overcast
2:35 PM 48.2 °F - 41.0 °F 76% 30.04 in 10.0 mi West 6.9 mph - N/A   Overcast
2:55 PM 48.2 °F - 41.0 °F 76% 30.04 in 10.0 mi West 5.8 mph - N/A   Overcast
3:15 PM 46.4 °F 41.5 °F 41.0 °F 81% 30.05 in 10.0 mi WNW 10.4 mph - N/A   Overcast
3:35 PM 46.4 °F 41.1 °F 41.0 °F 81% 30.05 in 10.0 mi WNW 11.5 mph - N/A   Overcast
3:55 PM 48.2 °F - 41.0 °F 76% 30.05 in 10.0 mi West 8.1 mph - N/A   Overcast
4:15 PM 48.2 °F - 41.0 °F 76% 30.05 in 10.0 mi WNW 6.9 mph - N/A   Overcast
4:35 PM 48.2 °F - 41.0 °F 76% 30.05 in 10.0 mi West 4.6 mph - N/A   Overcast
4:55 PM 50.0 °F - 41.0 °F 71% 30.05 in 10.0 mi WNW 4.6 mph - N/A   Overcast
5:15 PM 50.0 °F - 41.0 °F 71% 30.06 in 10.0 mi WNW 6.9 mph - N/A   Overcast
5:35 PM 50.0 °F - 41.0 °F 71% 30.06 in 10.0 mi West 5.8 mph - N/A   Overcast
5:55 PM 50.0 °F - 41.0 °F 71% 30.06 in 10.0 mi West 4.6 mph - N/A   Overcast
6:15 PM 48.2 °F - 41.0 °F 76% 30.06 in 10.0 mi West 3.5 mph - N/A   Overcast
6:35 PM 48.2 °F - 41.0 °F 76% 30.07 in 10.0 mi WNW 4.6 mph - N/A   Overcast
6:55 PM 44.6 °F 43.1 °F 41.0 °F 87% 30.08 in 10.0 mi WNW 3.5 mph - N/A   Mostly Cloudy
7:15 PM 44.6 °F - 41.0 °F 87% 30.08 in 10.0 mi Calm Calm - N/A   Scattered Clouds
7:35 PM 44.6 °F - 41.0 °F 87% 30.08 in 10.0 mi Calm Calm - N/A   Scattered Clouds
7:55 PM 42.8 °F - 39.2 °F 87% 30.09 in 10.0 mi Calm Calm - N/A   Clear
8:15 PM 41.0 °F - 37.4 °F 87% 30.09 in 10.0 mi Calm Calm - N/A   Clear
8:35 PM 41.0 °F - 37.4 °F 87% 30.09 in 10.0 mi Calm Calm - N/A   Clear
8:55 PM 39.2 °F - 37.4 °F 93% 30.10 in 10.0 mi Calm Calm - N/A   Clear
9:15 PM 39.2 °F - 37.4 °F 93% 30.10 in 10.0 mi Calm Calm - N/A   Clear
9:35 PM 41.0 °F - 37.4 °F 87% 30.10 in 10.0 mi Calm Calm - N/A   Clear
9:55 PM 39.2 °F - 37.4 °F 93% 30.10 in 10.0 mi Calm Calm - N/A   Clear
10:15 PM 37.4 °F - 35.6 °F 93% 30.10 in 5.0 mi Calm Calm - N/A   Clear
10:35 PM 37.4 °F - 35.6 °F 93% 30.10 in 5.0 mi Calm Calm - N/A   Clear
11:15 PM 35.6 °F - 35.6 °F 100% 30.10 in 4.0 mi Calm Calm - N/A   Clear
11:35 PM 35.6 °F - 33.8 °F 93% 30.10 in 2.5 mi Calm Calm - N/A   Clear
11:55 PM 35.6 °F - 33.8 °F 93% 30.10 in 3.0 mi Calm Calm - N/A   Clear